(60016) = 1999 TJ33 = 2000 YP135

Discovered at Socorro on 1999-10-04 by LINEAR.

Orbit

Orbit type: Main Belt

Note: WebGL enabled browser required.

epoch2024-03-31.0
epoch JD2460400.5
perihelion date2021-05-21.09595
perihelion JD2459355.59596
argument of perihelion (°)7.30609
ascending node (°)9.61022
inclination (°)9.97454
eccentricity0.0832169
perihelion distance (AU)2.8278923
Tisserand w.r.t. Jupiter3.2
ΔV w.r.t. Earth (km/sec)10.9
semimajor axis (AU)3.0845818
mean anomaly (°)190.10172
mean daily motion (°/day)0.18193220
aphelion distance (AU)3.341
period (years)5.42
P-vector [x]0.95705170
P-vector [y]0.25646317
P-vector [z]0.13519869
Q-vector [x]-0.28847162
Q-vector [y]0.79588132
Q-vector [z]0.53231293
absolute magnitude14.58
phase slope0.15
uncertainty0
referenceE2024-H23
observations used1133
oppositions20
arc length (days)12093
first opposition used1991
last opposition used2024
residual rms (arc-secs)0.69
perturbers coarse indicatorM-v
perturbers precise indicator003Ek
first observation date used1991-03-09.0
last observation date used2024-04-17.0
computer nameMPCLINUX
JD of orbit computation2456465.539472
perihelion JD uncertainty (days)1.5138E-04
argument of perihelion uncertainty (°)3.8134E-05
ascending node uncertainty (°)2.7260E-05
inclination uncertainty (°)8.8318E-06
eccentricity uncertainty 8.8273E-08
perihelion distance uncertainty (AU)2.6896E-07
Minimum Orbit Intersection Distances (in AU)
for orbit epoch: 2460400.5, reference: E2024-H23
Mercury2.47701
Venus2.10468
Earth1.8293
Mars1.40561
Jupiter2.11542
Saturn6.02727
Uranus15.1326
Neptune27.0015

Observations

1137 total observations over interval: 1991 03 09.46308 – 2024 03 19.535027
These data are available for download (format description).

Date (UT) J2000 RA J2000 Dec Magn Location Ref
1991 03 09.46308 11 45 46.85 +06 18 02.1 21.2 V 691 – Steward Observatory, Kitt Peak-Spacewatch MPS 77859
1991 03 09.48402 11 45 45.89 +06 18 06.2 20.6 V 691 – Steward Observatory, Kitt Peak-Spacewatch MPS 77859
1991 03 09.50449 11 45 44.86 +06 18 09.9 20.9 V 691 – Steward Observatory, Kitt Peak-Spacewatch MPS 77859
1991 03 12.36356 11 43 25.52 +06 26 41.0 20.5 V 691 – Steward Observatory, Kitt Peak-Spacewatch MPS 77859
1991 03 12.38681 11 43 24.36 +06 26 44.7 20.2 V 691 – Steward Observatory, Kitt Peak-Spacewatch MPS 77859
1991 03 12.41623 11 43 22.84 +06 26 50.2 20.4 V 691 – Steward Observatory, Kitt Peak-Spacewatch MPS 77859
1999 09 05.38819 01 30 16.77 +09 31 07.9 18.9 R 699 – Lowell Observatory-LONEOS MPS 59628
1999 09 05.41888 01 30 16.11 +09 31 10.7   699 – Lowell Observatory-LONEOS MPS 59628
1999 09 05.44957 01 30 15.39 +09 31 13.7   699 – Lowell Observatory-LONEOS MPS 59628
1999 10 04.31238 01 11 28.63 +09 29 59.7 18.8   704 – Lincoln Laboratory ETS, New Mexico MPS 6946
1999 10 04.32575 01 11 27.90 +09 29 59.1 18.7   704 – Lincoln Laboratory ETS, New Mexico MPS 6946
1999 10 04.33915 01 11 27.24 +09 29 58.0 19.0   704 – Lincoln Laboratory ETS, New Mexico MPS 6946
1999 10 04.35253 01 11 26.50 +09 29 55.9 19.0   704 – Lincoln Laboratory ETS, New Mexico MPS 6946
1999 10 06.24492 01 09 48.44 +09 27 27.3 19.1   704 – Lincoln Laboratory ETS, New Mexico MPS 6946
1999 10 06.25812 01 09 47.73 +09 27 25.9 19.0   704 – Lincoln Laboratory ETS, New Mexico MPS 6946
1999 10 06.27133 01 09 47.00 +09 27 24.8 19.0   704 – Lincoln Laboratory ETS, New Mexico MPS 6946
1999 10 06.28450 01 09 46.29 +09 27 24.0 19.1   704 – Lincoln Laboratory ETS, New Mexico MPS 6946
1999 10 06.29795 01 09 45.58 +09 27 22.5 18.9   704 – Lincoln Laboratory ETS, New Mexico MPS 6946
1999 10 07.32447 01 08 51.74 +09 25 56.8 19.1   704 – Lincoln Laboratory ETS, New Mexico MPS 13687
1999 10 07.33522 01 08 51.11 +09 25 55.7 19.0   704 – Lincoln Laboratory ETS, New Mexico MPS 13687
1999 10 07.34575 01 08 50.57 +09 25 54.6 19.2   704 – Lincoln Laboratory ETS, New Mexico MPS 13687
1999 10 07.35642 01 08 50.03 +09 25 52.7 19.1   704 – Lincoln Laboratory ETS, New Mexico MPS 13687
1999 10 09.28472 01 07 08.37 +09 23 02.8 18.4   704 – Lincoln Laboratory ETS, New Mexico MPS 13687
1999 10 09.29804 01 07 07.63 +09 23 01.5 18.7   704 – Lincoln Laboratory ETS, New Mexico MPS 13687
1999 10 09.31106 01 07 06.94 +09 23 00.4 18.4   704 – Lincoln Laboratory ETS, New Mexico MPS 13687
1999 10 09.32427 01 07 06.20 +09 22 59.5 18.9   704 – Lincoln Laboratory ETS, New Mexico MPS 13687
1999 10 09.33788 01 07 05.44 +09 22 57.6 18.8   704 – Lincoln Laboratory ETS, New Mexico MPS 13687
1999 10 15.36241 01 01 46.86 +09 13 15.9 16.4   704 – Lincoln Laboratory ETS, New Mexico MPS 13687
1999 10 15.37793 01 01 45.98 +09 13 14.4 16.5   704 – Lincoln Laboratory ETS, New Mexico MPS 13687
1999 10 15.39330 01 01 45.21 +09 13 12.4 16.9   704 – Lincoln Laboratory ETS, New Mexico MPS 13687
1999 10 19.19189 00 58 28.60 +09 06 48.6 17.2   704 – Lincoln Laboratory ETS, New Mexico MPS 13687
1999 10 19.20569 00 58 27.91 +09 06 47.3 17.5   704 – Lincoln Laboratory ETS, New Mexico MPS 13687
1999 10 19.21941 00 58 27.17 +09 06 46.5 17.7   704 – Lincoln Laboratory ETS, New Mexico MPS 13687
1999 10 19.23323 00 58 26.50 +09 06 45.0 17.9   704 – Lincoln Laboratory ETS, New Mexico MPS 13687
1999 10 19.24702 00 58 25.79 +09 06 43.4 17.7   704 – Lincoln Laboratory ETS, New Mexico MPS 13687
1999 11 04.21726 00 46 25.87 +08 43 24.6 18.8 R 703 – Catalina Sky Survey MPS 7392
1999 11 04.23396 00 46 25.17 +08 43 22.9 18.2 R 703 – Catalina Sky Survey MPS 7392
1999 11 04.25074 00 46 24.77 +08 43 21.9 18.6 R 703 – Catalina Sky Survey MPS 7392
1999 11 04.26722 00 46 24.01 +08 43 21.4 19.7 R 703 – Catalina Sky Survey MPS 7392
1999 11 05.24374 00 45 48.49 +08 42 22.0 19.2   704 – Lincoln Laboratory ETS, New Mexico MPS 8579
1999 11 05.26003 00 45 47.84 +08 42 19.1 19.4   704 – Lincoln Laboratory ETS, New Mexico MPS 8579
1999 11 05.27625 00 45 47.29 +08 42 19.6 19.5   704 – Lincoln Laboratory ETS, New Mexico MPS 8579
1999 11 05.29244 00 45 46.58 +08 42 17.0 19.2   704 – Lincoln Laboratory ETS, New Mexico MPS 8579
1999 11 14.14529 00 41 20.67 +08 36 55.4 18.6   704 – Lincoln Laboratory ETS, New Mexico MPS 8579
1999 11 14.15970 00 41 20.24 +08 36 56.1 19.1   704 – Lincoln Laboratory ETS, New Mexico MPS 8579
1999 11 14.17417 00 41 19.90 +08 36 56.0 19.3   704 – Lincoln Laboratory ETS, New Mexico MPS 8579
1999 11 14.18867 00 41 19.54 +08 36 54.6 19.3   704 – Lincoln Laboratory ETS, New Mexico MPS 8579
1999 11 14.20305 00 41 19.13 +08 36 55.1 19.5   704 – Lincoln Laboratory ETS, New Mexico MPS 8579
2000 12 06.37552 08 20 49.81 +33 10 54.8 19.1   704 – Lincoln Laboratory ETS, New Mexico MPS 25538
2000 12 06.39070 08 20 49.55 +33 10 59.3 19.4   704 – Lincoln Laboratory ETS, New Mexico MPS 25538
2000 12 06.40630 08 20 49.27 +33 11 02.7 19.2   704 – Lincoln Laboratory ETS, New Mexico MPS 25538
2000 12 06.43667 08 20 48.57 +33 11 10.7 19.6   704 – Lincoln Laboratory ETS, New Mexico MPS 25538
2000 12 18.41299 08 15 18.30 +34 01 24.5 18.6 R 699 – Lowell Observatory-LONEOS MPS 25538
2000 12 18.43489 08 15 17.45 +34 01 30.9   699 – Lowell Observatory-LONEOS MPS 25538
2000 12 18.50445 08 15 14.78 +34 01 47.6   699 – Lowell Observatory-LONEOS MPS 25538
2000 12 18.52633 08 15 13.83 +34 01 52.3   699 – Lowell Observatory-LONEOS MPS 25538
2000 12 19.38726 08 14 41.16 +34 05 27.9 19.3   704 – Lincoln Laboratory ETS, New Mexico MPS 25538
2000 12 19.41785 08 14 39.97 +34 05 34.7 19.3   704 – Lincoln Laboratory ETS, New Mexico MPS 25538
2000 12 19.43327 08 14 39.41 +34 05 38.1 19.4   704 – Lincoln Laboratory ETS, New Mexico MPS 25538
2001 01 05.30968 08 00 42.69 +35 06 50.0 18.3   704 – Lincoln Laboratory ETS, New Mexico MPS 25538
2001 01 05.32505 08 00 41.78 +35 06 52.7 19.2   704 – Lincoln Laboratory ETS, New Mexico MPS 25538
2001 01 05.34051 08 00 40.89 +35 06 55.2 19.1   704 – Lincoln Laboratory ETS, New Mexico MPS 25538
2001 01 05.37129 08 00 39.05 +35 07 01.6 19.1   704 – Lincoln Laboratory ETS, New Mexico MPS 25538
2002 03 16.31527 12 28 22.11 -01 19 14.7 19.0   704 – Lincoln Laboratory ETS, New Mexico MPS 51643
2002 03 16.32883 12 28 21.45 -01 19 12.2 19.3   704 – Lincoln Laboratory ETS, New Mexico MPS 51643
2002 03 16.34240 12 28 20.77 -01 19 09.7 19.3   704 – Lincoln Laboratory ETS, New Mexico MPS 51643
2002 03 16.35596 12 28 20.14 -01 19 08.3 19.4   704 – Lincoln Laboratory ETS, New Mexico MPS 51643
2002 03 16.36970 12 28 19.52 -01 19 05.4 19.6   704 – Lincoln Laboratory ETS, New Mexico MPS 51643
2002 03 16.51065 12 28 12.90 -01 18 42.6 20.6   608 – Haleakala-AMOS MPS 51643
2002 03 16.52142 12 28 12.39 -01 18 41.6 21.2   608 – Haleakala-AMOS MPS 51643
2002 03 16.53216 12 28 11.88 -01 18 39.2 20.4   608 – Haleakala-AMOS MPS 51643
2002 03 21.25463 12 24 28.13 -01 05 39.7 19.0   644 – Palomar Mountain/NEAT MPS 51643
2002 03 21.31963 12 24 24.93 -01 05 28.6 18.8   644 – Palomar Mountain/NEAT MPS 51643
2002 03 21.38802 12 24 21.55 -01 05 17.1 19.4   644 – Palomar Mountain/NEAT MPS 51643
2002 03 21.95726 12 23 54.14 -01 03 42.5 18.6 R 599 – Campo Imperatore-CINEOS MPS 54461
2002 03 21.99189 12 23 52.43 -01 03 36.8 19.1 R 599 – Campo Imperatore-CINEOS MPS 54461
2002 04 05.26023 12 12 26.18 -00 24 48.2 20.6 V 291 – LPL/Spacewatch II MPS 54461
2002 04 05.28006 12 12 25.22 -00 24 45.2 20.6 V 291 – LPL/Spacewatch II MPS 54461
2002 04 05.29991 12 12 24.27 -00 24 42.3 20.7 V 291 – LPL/Spacewatch II MPS 54461
2002 04 09.22884 12 09 25.44 -00 15 12.8 19.1 R 699 – Lowell Observatory-LONEOS MPS 54461
2002 04 09.24545 12 09 24.74 -00 15 11.4   699 – Lowell Observatory-LONEOS MPS 54461
2002 04 09.26193 12 09 23.94 -00 15 09.4   699 – Lowell Observatory-LONEOS MPS 54461
2002 04 09.27852 12 09 23.23 -00 15 07.8   699 – Lowell Observatory-LONEOS MPS 54461
2002 04 10.25943 12 08 39.84 -00 12 52.5 19.9   704 – Lincoln Laboratory ETS, New Mexico MPS 54461
2002 04 10.27110 12 08 39.34 -00 12 51.7 20.0   704 – Lincoln Laboratory ETS, New Mexico MPS 54461
2002 04 10.28278 12 08 38.81 -00 12 49.5 19.9   704 – Lincoln Laboratory ETS, New Mexico MPS 54461
